Stations météo

réclame
Mon MeteoGroup
Gardelegen, Allemagne (10359): Température de l'air & dewpoint: 12.01.2019 13:00:00 - 18.01.2019 13:00:00 (CET)Gardelegen, Allemagne (10359): Température de l'air 5cm & Température de l'air -5cm: 12.01.2019 13:00:00 - 18.01.2019 13:00:00 (CET)Gardelegen, Allemagne (10359): Température de l'air -20cm & Température de l'air -100cm: 12.01.2019 13:00:00 - 18.01.2019 13:00:00 (CET)Gardelegen, Allemagne (10359): Vitesse du vent & gusts: 12.01.2019 13:00:00 - 18.01.2019 13:00:00 (CET)Gardelegen, Allemagne (10359): Direction du vent: 12.01.2019 13:00:00 - 18.01.2019 13:00:00 (CET)Gardelegen, Allemagne (10359): reduced air pressure: 12.01.2019 13:00:00 - 18.01.2019 13:00:00 (CET)Gardelegen, Allemagne (10359): visibility: 12.01.2019 13:00:00 - 18.01.2019 13:00:00 (CET)Gardelegen, Allemagne (10359): Ensoleillement: 12.01.2019 13:00:00 - 18.01.2019 13:00:00 (CET)Gardelegen, Allemagne (10359): Quantités de précipitations: 12.01.2019 13:00:00 - 18.01.2019 13:00:00 (CET)
Date & Time tt [°C] td [°C] tt 5cm [°C] tt -5cm [°C] tt -20cm [°C] tt -100cm [°C] ff [km/h] ff [knt] fx [km/h] fx [knt] dd ppp [hPa] vv [km] sd [min] rr [mm]
18.01.2019 13:00:00 - - - - - - - - - - - - - - -
18.01.2019 12:00:00 0,7 -4,0 2,4 0,2 2,1 6,0 15 8 24 13 W 1018,8 21 60 0,0
18.01.2019 11:00:00 -0,7 -3,9 1,1 0,2 2,2 6,0 13 7 21 11 W 1018,6 31 60 0,0
18.01.2019 10:00:00 -1,8 -4,2 -1,5 0,2 2,3 6,0 8 4 14 8 WSW 1018,1 43 60 0,0
18.01.2019 09:00:00 -2,6 -4,5 -4,4 0,3 2,4 6,0 8 4 17 9 WSW 1017,3 45 12 0,0
18.01.2019 08:00:00 -2,3 -4,5 -4,3 0,4 2,5 6,0 11 6 19 10 W 1016,4 46 0 0,0
18.01.2019 07:00:00 -1,7 -4,3 -3,5 0,5 2,6 6,0 13 7 19 11 W 1015,1 36 0 0,0
18.01.2019 06:00:00 -1,1 -4,2 -2,8 0,6 2,7 6,0 13 7 28 15 WNW 1013,8 49 0 0,0
18.01.2019 05:00:00 -1,0 -3,9 -2,3 0,7 2,9 6,0 15 8 32 17 NW 1012,7 47 0 0,0
18.01.2019 04:00:00 0,0 -2,8 -0,9 0,8 3,0 6,0 17 9 34 18 NW 1011,3 49 0 0,0
18.01.2019 03:00:00 0,2 -1,5 -0,3 0,9 3,2 6,0 14 8 26 14 NW 1009,9 46 0 0,0
18.01.2019 02:00:00 -0,1 -1,4 -0,6 1,0 3,4 6,0 14 8 28 15 NNW 1008,3 62 0 0,0
18.01.2019 01:00:00 0,2 -0,6 -0,1 1,3 3,6 6,0 16 9 38 20 NNW 1006,8 1,3 0 0,4
18.01.2019 00:00:00 1,9 -1,6 0,8 1,6 3,8 5,9 23 13 42 23 W 1005,4 67 0 0,0
17.01.2019 23:00:00 1,9 -1,3 0,1 1,8 4,0 5,9 22 12 41 22 W 1003,9 69 0 0,0
17.01.2019 22:00:00 2,4 -0,7 1,0 2,5 4,2 5,9 24 13 41 22 W 1003,2 70 0 0,0
17.01.2019 21:00:00 2,9 -0,1 1,7 2,9 4,3 5,9 25 13 40 22 W 1002,4 52 0 0,0
17.01.2019 20:00:00 3,1 1,0 2,2 3,3 4,4 5,9 20 11 31 17 W 1001,4 41 0 0,0
17.01.2019 19:00:00 3,3 1,9 2,5 3,5 4,5 5,9 17 9 31 17 W 1000,4 31 0 0,2
17.01.2019 18:00:00 3,3 1,7 2,6 3,7 4,6 5,9 13 7 24 13 WSW 999,5 12 0 0,1
17.01.2019 17:00:00 3,7 1,2 2,7 4,0 4,7 5,9 13 7 35 19 WSW 998,9 70 0 0,0
17.01.2019 16:00:00 5,5 0,2 4,5 4,6 4,7 5,9 21 11 33 18 WSW 998,4 43 3 0,0
17.01.2019 15:00:00 6,3 0,3 5,8 5,2 4,7 5,9 19 10 34 18 WSW 998,4 36 10 0,0
17.01.2019 14:00:00 6,3 0,5 6,0 5,5 4,5 5,9 21 11 42 23 WSW 998,9 56 20 0,0
17.01.2019 13:00:00 6,7 0,7 7,7 6,0 4,2 5,9 26 14 45 24 WSW 999,3 34 47 0,0
17.01.2019 12:00:00 5,9 1,5 6,2 4,9 4,0 5,9 21 12 35 19 WSW 999,8 41 32 0,0
17.01.2019 11:00:00 5,1 1,8 4,9 3,9 4,0 5,9 17 9 38 21 WSW 1000,5 50 11 0,0
17.01.2019 10:00:00 5,0 1,9 4,2 3,6 4,0 5,9 21 11 - - WSW 1000,4 54 1 0,0
17.01.2019 09:00:00 - - - 3,5 4,0 5,9 - - - - - - 62 0 0,0
17.01.2019 08:00:00 4,7 2,4 3,7 3,6 4,0 5,9 18 10 36 19 WSW 999,7 37 0 0,0
17.01.2019 07:00:00 4,6 3,0 3,7 3,7 3,9 5,9 20 11 34 18 WSW 999,3 27 0 0,2
17.01.2019 06:00:00 4,9 2,7 3,9 3,6 3,9 5,9 22 12 41 22 WSW 998,8 22 0 0,0
17.01.2019 05:00:00 5,2 1,8 4,3 3,4 3,9 5,9 21 11 34 18 WSW 998,5 25 0 0,0
17.01.2019 04:00:00 5,0 1,2 4,3 3,2 3,9 5,9 23 12 38 21 SW 998,5 32 0 0,0
17.01.2019 03:00:00 4,9 0,7 4,0 3,0 3,9 5,9 21 11 39 21 SW 998,8 31 0 0,0
17.01.2019 02:00:00 4,9 0,2 4,0 2,9 4,0 5,8 24 13 47 26 SW 998,9 30 0 0,0
17.01.2019 01:00:00 4,8 0,8 3,8 2,5 4,1 5,8 18 10 31 17 SW 999,5 36 0 0,0
17.01.2019 00:00:00 3,6 0,2 2,2 2,2 4,3 5,8 12 7 21 12 SSW 1000,4 37 0 0,0
16.01.2019 23:00:00 3,3 0,1 1,9 2,5 4,6 5,8 13 7 21 11 S 1001,3 34 0 0,0
16.01.2019 22:00:00 4,0 0,2 2,6 3,1 4,8 5,8 15 8 24 13 SSW 1002,3 45 0 0,0
16.01.2019 21:00:00 4,7 0,6 3,6 3,8 4,9 5,8 13 7 30 16 SSW 1003,0 44 0 0,0
16.01.2019 20:00:00 5,3 1,1 4,6 4,4 5,0 5,8 18 10 34 18 SW 1003,7 41 0 0,0
16.01.2019 19:00:00 5,7 1,5 5,0 4,7 5,1 5,8 17 9 31 17 SSW 1004,2 42 0 0,0
16.01.2019 18:00:00 6,0 2,0 5,4 5,0 5,1 5,8 18 10 32 18 SW 1004,7 40 0 0,0
16.01.2019 17:00:00 6,6 2,8 5,9 5,3 5,2 5,8 19 10 31 17 SW 1005,2 67 0 0,0
16.01.2019 16:00:00 6,9 3,6 6,3 5,7 5,1 5,8 16 9 32 17 SW 1005,6 59 0 0,0
16.01.2019 15:00:00 7,1 3,9 6,6 5,9 5,1 5,8 18 10 30 16 SW 1006,0 34 0 0,0
16.01.2019 14:00:00 7,4 3,9 6,8 6,0 5,0 5,8 16 8 31 17 SW 1006,5 52 0 0,0
16.01.2019 13:00:00 7,5 4,0 7,2 5,9 4,8 5,8 19 11 36 19 SW 1007,0 59 0 0,0
16.01.2019 12:00:00 7,4 3,9 6,9 5,7 4,7 5,8 18 10 35 19 SW 1007,9 40 0 0,0
16.01.2019 11:00:00 7,3 3,9 6,7 5,4 4,7 5,8 17 9 32 17 WSW 1008,6 28 0 0,0
16.01.2019 10:00:00 7,1 3,8 6,4 5,1 4,6 5,8 17 9 27 15 WSW 1008,8 24 0 0,0
16.01.2019 09:00:00 6,9 3,8 6,1 4,9 4,6 5,8 18 10 29 16 WSW 1008,9 22 0 0,0
16.01.2019 08:00:00 6,5 4,0 5,7 4,9 4,6 5,8 14 7 31 17 WSW 1008,9 15 0 0,0
16.01.2019 07:00:00 6,6 3,8 5,7 4,8 4,6 5,8 17 9 28 15 WSW 1009,0 12 0 0,0
16.01.2019 06:00:00 6,3 3,8 5,3 4,9 4,6 5,8 15 8 31 17 WSW 1009,5 11 0 0,0
16.01.2019 05:00:00 6,3 3,9 5,6 4,9 4,5 5,8 22 12 36 19 WSW 1009,9 12 0 0,0
16.01.2019 04:00:00 6,9 4,4 6,0 5,2 4,5 5,8 20 11 42 23 W 1010,1 11 0 0,0
16.01.2019 03:00:00 6,9 4,8 6,0 5,2 4,4 5,8 26 14 43 23 W 1010,2 10 0 0,0
16.01.2019 02:00:00 6,9 5,1 6,2 5,2 4,3 5,8 25 14 49 26 W 1009,9 13 0 0,0
16.01.2019 01:00:00 6,7 5,3 6,1 5,1 4,2 5,8 28 15 46 25 W 1009,8 9 0 0,0
16.01.2019 00:00:00 6,5 5,1 5,9 5,0 4,1 5,8 27 15 44 24 W 1009,7 8 0 0,0
15.01.2019 23:00:00 6,5 4,9 5,9 4,9 4,0 5,8 25 14 49 26 W 1009,9 11 0 0,0
15.01.2019 22:00:00 6,6 4,6 6,0 4,8 3,8 5,9 29 16 49 27 W 1009,7 14 0 0,0
15.01.2019 21:00:00 6,3 5,0 5,6 4,7 3,7 5,9 23 13 44 24 W 1009,6 8 0 0,0
15.01.2019 20:00:00 6,4 4,8 5,8 4,6 3,6 5,9 27 14 42 23 W 1009,5 9 0 0,0
15.01.2019 19:00:00 6,5 4,5 5,7 4,5 3,4 5,9 27 15 49 26 W 1009,3 13 0 0,0
15.01.2019 18:00:00 6,3 4,3 5,6 4,3 3,3 5,9 28 15 49 26 W 1009,2 12 0 0,0
15.01.2019 17:00:00 6,2 4,0 5,5 4,2 3,1 5,9 29 15 50 27 W 1009,4 16 0 0,0
15.01.2019 16:00:00 6,2 3,5 5,6 4,1 2,9 5,9 31 17 51 27 W 1009,6 15 0 0,0
15.01.2019 15:00:00 5,9 3,4 5,2 3,9 2,6 5,9 27 15 45 25 W 1009,9 12 0 0,0
15.01.2019 14:00:00 5,8 3,4 5,1 3,7 2,3 5,9 29 15 44 24 W 1010,5 14 0 0,0
15.01.2019 13:00:00 4,8 3,0 4,2 3,0 2,1 6,0 22 12 34 18 W 1011,3 11 0 0,0
15.01.2019 12:00:00 4,5 2,6 3,8 2,4 1,9 6,0 26 14 44 24 W 1012,1 8 0 -
15.01.2019 11:00:00 3,6 1,0 3,4 0,9 1,8 6,0 21 11 38 20 W 1012,5 24 0 0,0
15.01.2019 10:00:00 3,3 0,2 2,3 0,3 1,8 6,0 24 13 41 22 WSW 1012,5 22 0 0,0
15.01.2019 09:00:00 3,0 -0,9 1,9 0,3 1,8 6,0 22 12 41 22 W 1012,7 35 0 0,0
15.01.2019 08:00:00 2,5 -1,0 1,3 0,3 1,9 6,0 24 13 39 21 W 1012,5 48 0 0,0
15.01.2019 07:00:00 2,6 -1,0 0,8 0,3 1,9 6,0 23 12 39 21 W 1012,9 50 0 0,0
15.01.2019 06:00:00 2,8 -1,3 1,3 0,3 1,9 6,0 18 10 39 21 W 1013,5 44 0 0,0
15.01.2019 05:00:00 2,6 -1,3 1,2 0,3 2,0 6,0 23 13 38 20 W 1013,5 41 0 0,0
15.01.2019 04:00:00 2,4 -1,1 1,1 0,4 2,0 6,0 23 12 38 21 W 1013,6 33 0 0,0
15.01.2019 03:00:00 2,3 -1,3 0,9 0,4 2,1 6,0 21 11 41 22 W 1013,6 38 0 0,0
15.01.2019 02:00:00 1,6 -1,3 0,2 0,4 2,1 6,0 22 12 37 20 W 1013,1 33 0 0,0
15.01.2019 01:00:00 1,5 -1,4 -0,1 0,4 2,2 6,1 21 11 38 21 W 1013,1 37 0 0,0
15.01.2019 00:00:00 1,7 -1,4 0,6 0,4 2,2 6,1 22 12 38 20 W 1012,8 40 0 0,0
14.01.2019 23:00:00 1,3 -1,1 0,4 0,4 2,3 6,1 21 12 34 18 W 1012,5 39 0 0,0
14.01.2019 22:00:00 1,1 -1,7 0,2 0,4 2,4 6,1 21 11 33 18 W 1012,5 23 0 0,0
14.01.2019 21:00:00 0,6 -2,1 -1,3 0,5 2,5 6,1 18 10 31 17 W 1012,0 42 0 0,0
14.01.2019 20:00:00 0,7 -2,6 -1,1 0,5 2,6 6,1 20 11 33 18 W 1011,4 46 0 0,0
14.01.2019 19:00:00 0,8 -3,1 -1,2 0,6 2,8 6,1 16 9 27 15 W 1010,6 54 0 0,0
14.01.2019 18:00:00 1,5 -3,1 -0,6 0,6 2,9 6,1 16 9 26 14 W 1009,9 56 0 0,0
14.01.2019 17:00:00 1,9 -4,3 -0,3 0,2 3,2 6,1 16 9 40 22 WNW 1009,0 70 0 0,0
14.01.2019 16:00:00 2,5 -4,8 1,0 1,1 3,3 6,0 18 10 51 28 NW 1007,8 37 43 0,0
14.01.2019 15:00:00 2,6 -3,0 1,3 2,2 3,4 6,0 18 10 40 21 NW 1006,8 64 7 0,2
14.01.2019 14:00:00 1,4 -0,7 1,6 2,2 3,4 6,0 21 11 54 29 WNW 1006,0 33 0 0,1
14.01.2019 13:00:00 3,5 -3,7 3,6 3,2 3,3 6,0 25 13 51 28 NNW 1005,0 36 14 0,0
14.01.2019 12:00:00 3,5 -3,3 3,8 2,8 3,2 6,0 27 14 48 26 NW 1004,6 41 16 0,0
14.01.2019 11:00:00 3,2 -2,8 3,8 1,9 3,2 6,0 24 13 42 23 NW 1004,4 38 9 0,0
14.01.2019 10:00:00 2,7 -1,9 1,9 1,5 3,3 6,0 19 11 33 18 WNW 1003,9 39 0 0,0
14.01.2019 09:00:00 2,8 -3,4 1,3 0,9 3,5 6,0 21 12 49 27 WNW 1003,1 41 0 0,0
14.01.2019 08:00:00 2,9 -2,1 1,3 1,3 3,7 6,0 21 11 43 23 WNW 1002,0 49 0 0,0
14.01.2019 07:00:00 3,3 -1,8 1,7 1,6 3,8 6,0 28 15 59 32 NW 1001,1 45 0 0,1
14.01.2019 06:00:00 3,3 -1,7 1,8 1,3 4,1 6,0 19 10 40 22 WNW 1000,1 32 0 0,0
14.01.2019 05:00:00 3,4 -2,2 1,4 1,6 4,4 6,0 21 12 54 29 WNW 999,7 32 0 0,0
14.01.2019 04:00:00 4,1 -1,5 2,7 2,2 4,7 6,0 30 16 54 29 NW 998,4 27 0 0,0
14.01.2019 03:00:00 4,3 -1,8 2,2 2,6 4,9 5,9 33 18 55 30 WNW 996,2 31 0 0,0
14.01.2019 02:00:00 4,7 -1,8 2,9 3,1 5,2 5,9 24 13 61 33 NW 995,1 35 0 0,0
14.01.2019 01:00:00 5,7 -0,3 3,3 4,0 5,4 5,9 29 16 55 30 NW 993,8 40 0 0,0
14.01.2019 00:00:00 6,1 1,3 4,0 4,5 5,5 5,9 31 17 56 30 WNW 992,5 70 0 0,0
13.01.2019 23:00:00 6,8 3,7 5,2 5,2 5,6 5,9 26 14 53 28 W 991,6 49 0 0,0
13.01.2019 22:00:00 6,6 3,8 5,0 5,3 5,7 5,9 21 12 49 26 WNW 991,5 70 0 0,1
13.01.2019 21:00:00 6,7 4,1 5,2 5,4 5,8 5,9 22 12 45 24 W 991,1 53 0 0,0
13.01.2019 20:00:00 6,6 4,1 4,9 5,4 5,9 5,9 27 14 50 27 WNW 991,0 59 0 0,0
13.01.2019 19:00:00 7,1 4,0 5,6 6,4 5,9 5,9 24 13 61 33 WNW 990,6 70 0 4,6
13.01.2019 18:00:00 8,3 7,1 7,4 6,8 5,8 5,9 27 14 40 21 W 990,2 4,0 0 0,1
13.01.2019 17:00:00 8,4 7,1 7,4 6,9 5,7 5,9 23 13 40 21 W 991,4 70 0 0,2
13.01.2019 16:00:00 8,4 7,5 7,7 7,0 5,5 5,9 21 11 36 19 W 992,6 14 0 0,2
13.01.2019 15:00:00 8,3 7,5 7,8 7,0 5,4 5,9 20 11 36 20 W 993,5 8 0 0,2
13.01.2019 14:00:00 8,2 7,3 7,6 6,8 5,2 5,8 23 13 39 21 W 994,6 10 0 0,3
13.01.2019 13:00:00 7,7 6,8 7,3 6,4 5,0 5,8 23 12 42 23 W 995,9 10 0 0,0
13.01.2019 12:00:00 7,0 6,1 6,6 6,0 4,9 5,8 22 12 34 18 WSW 997,2 16 0 0,4
13.01.2019 11:00:00 6,5 5,4 5,9 5,5 4,8 5,8 20 11 32 17 WSW 998,8 6 0 0,0
13.01.2019 10:00:00 6,3 5,1 5,7 5,2 4,7 5,8 21 11 33 18 WSW 1000,4 37 0 0,3
13.01.2019 09:00:00 6,1 5,2 5,4 5,0 4,7 5,8 19 10 35 19 W 1001,8 9 0 1,1
13.01.2019 08:00:00 6,2 5,2 5,4 4,8 4,6 5,8 18 10 31 17 W 1002,6 22 0 0,2
13.01.2019 07:00:00 5,9 4,9 5,0 4,6 4,6 5,8 17 9 32 18 W 1003,2 23 0 0,1
13.01.2019 06:00:00 5,8 4,5 4,4 4,5 4,7 5,8 16 8 28 15 W 1003,8 70 0 0,0
13.01.2019 05:00:00 6,0 4,7 5,1 4,8 4,7 5,8 16 9 27 14 W 1004,5 63 0 0,1
13.01.2019 04:00:00 5,8 5,1 5,1 4,9 4,6 5,8 16 8 30 16 W 1004,8 3,5 0 1,4
13.01.2019 03:00:00 5,7 4,9 5,1 4,8 4,6 5,8 15 8 36 19 W 1005,0 3,8 0 0,9
13.01.2019 02:00:00 5,6 4,5 4,9 4,7 4,6 5,8 20 11 34 18 W 1005,0 23 0 0,0
13.01.2019 01:00:00 5,5 3,9 4,6 4,6 4,6 5,8 21 11 37 20 W 1004,8 70 0 0,4
13.01.2019 00:00:00 5,8 4,0 4,8 4,7 4,6 5,8 22 12 39 21 W 1005,2 23 0 0,1
12.01.2019 23:00:00 6,1 4,1 5,0 4,7 4,6 5,8 19 11 35 19 W 1005,4 48 0 0,0
12.01.2019 22:00:00 5,9 4,3 4,8 4,6 4,6 5,8 18 10 41 22 W 1005,7 46 0 0,1
12.01.2019 21:00:00 6,0 4,7 5,1 4,8 4,6 5,8 19 10 39 21 W 1006,2 12 0 0,5
12.01.2019 20:00:00 6,2 4,3 5,0 4,6 4,6 5,8 21 11 35 19 W 1006,4 25 0 0,0
12.01.2019 19:00:00 6,3 4,6 5,1 4,7 4,5 5,8 22 12 32 18 W 1006,6 30 0 0,0
12.01.2019 18:00:00 6,2 4,8 5,3 4,9 4,5 5,8 24 13 35 19 W 1006,7 24 0 0,3
12.01.2019 17:00:00 5,8 4,8 5,1 4,8 4,5 5,7 20 11 34 18 WSW 1007,5 12 0 0,6
12.01.2019 16:00:00 5,5 4,5 4,9 4,8 4,5 5,7 21 11 38 20 WSW 1008,2 11 0 0,3
12.01.2019 15:00:00 5,3 4,3 4,8 4,9 4,4 5,7 19 10 36 19 WSW 1009,1 5 0 0,1
12.01.2019 14:00:00 5,4 3,7 4,7 5,0 4,3 5,7 19 11 34 19 WSW 1010,3 13 0 0,0
12.01.2019 13:00:00 5,7 3,0 5,1 5,4 4,2 5,7 19 10 37 20 WSW 1012,0 44 0 0,0

tt = Température de l'air
td = dewpoint
tt 5cm = Température de l'air 5cm
tt -5cm = Température de l'air -5cm
tt -20cm = Température de l'air -20cm
tt -100cm = Température de l'air -100cm
ff = Vitesse du vent
fx = gusts
dd = Direction du vent
ppp = reduced air pressure
vv = visibility
sd = Ensoleillement
rr = Quantités de précipitations

stations d'obs. à proximité